[[{"header":{"parameterUnit":"m.s-1","parameterCategory":1,"la1":30.2992,"la2":30.254,"lo1":-89.0895,"lo2":-89.0443,"dy":0.0025,"dx":0.0025,"nx":19,"ny":19,"refTime":"2026-05-12T09:00:00:Z","depth":0,"parameterNumber":2,"parameterNumberName":"U-component_of_WINDS"},"data":[0,0,0,-3.5014,-3.5023,-3.5457,-3.5459,-3.5969,-3.5973,0,0,0,0,0,0,0,0,0,0,0,-3.4856,-3.4858,-3.5014,-3.5024,-3.5456,-3.5459,-3.5969,-3.5973,0,0,0,0,0,0,0,0,0,0,0,-3.4855,-3.4858,-3.4861,-3.5025,-3.5456,-3.5459,-3.5968,-3.5657,0,0,0,0,0,0,0,0,0,0,-3.5244,-3.5067,-3.4857,-3.4861,-3.5027,-3.5455,-3.5459,-3.5643,-3.5676,-3.5753,0,-3.5811,0,-3.59,-3.6005,-3.6006,0,0,0,-3.5047,-3.5039,-3.5183,-3.4861,-3.5031,-3.5455,-3.5268,-3.5662,-3.57,-3.5797,-3.5818,-3.5839,-3.5908,-3.6007,-3.601,-3.6371,-3.6371,0,0,-3.5023,-3.4918,-3.5156,-3.5206,-3.5132,-3.5254,-3.5281,-3.5686,-3.5703,-3.582,-3.5852,-3.5917,-3.6011,-3.6014,-3.637,-3.6371,0,0,0,-3.4938,-3.49,-3.5036,-3.5183,-3.5265,-3.5265,-3.5297,-3.5685,-3.5737,-3.5857,-3.5923,-3.6013,-3.6019,-3.637,-3.6371,-3.6296,0,0,0,-3.4925,-3.4852,-3.5024,-3.4964,-3.5256,-3.5479,-3.5286,-3.5709,-3.5758,-3.592,-3.6013,-3.6023,-3.6369,-3.637,-3.6297,-3.6278,0,0,0,-3.4838,-3.4842,-3.4894,-3.4958,-3.514,-3.5475,-3.5552,-3.5722,-3.5797,-3.6007,-3.6025,-3.6369,-3.637,-3.6298,-3.628,-3.6342,0,0,0,-3.4715,-3.4822,-3.4891,-3.5037,-3.5136,-3.5426,-3.5551,-3.5773,-3.5944,-3.6016,-3.6369,-3.637,-3.6298,-3.6281,-3.6341,-3.6372,-3.6376,0,0,-3.4792,-3.4828,-3.4923,-3.4997,-3.5247,-3.5368,-3.5611,-3.5867,-3.5985,-3.6236,-3.6247,-3.6297,-3.628,-3.6341,-3.6437,-3.6439,0,0,0,-3.4912,-3.4977,-3.5067,-3.5224,-3.5422,-3.5591,-3.5822,-3.5918,-3.6137,-3.6091,-3.6341,-3.6334,-3.6375,-3.6394,-3.6396,-3.6437,-3.6376,-3.6376,-3.6375,-3.4868,-3.5012,-3.5178,-3.5374,-3.5526,-3.5764,-3.5901,-3.6073,-3.6174,-3.6231,-3.6305,-3.6345,-3.6364,-3.6366,-3.6407,-3.6336,-3.6335,-3.6335,-3.6335,-3.4992,-3.5108,-3.5243,-3.5451,-3.5604,-3.5784,-3.602,-3.6086,-3.6277,-3.63,-3.6344,-3.6353,-3.6363,-3.6408,-3.6331,-3.6332,-3.6332,-3.6333,-3.6333,-3.4977,-3.5057,-3.5173,-3.5416,-3.5589,-3.5788,-3.5964,-3.6099,-3.6228,-3.6271,-3.6364,-3.6366,-3.6383,-3.6306,-3.6306,-3.6307,-3.6307,-3.6307,-3.6307,-3.4914,-3.5046,-3.5177,-3.5398,-3.5518,-3.5694,-3.5939,-3.6062,-3.6233,-3.6318,-3.6319,-3.6414,-3.6338,-3.6314,-3.631,-3.6309,-3.6309,-3.6309,-3.6308,-3.4981,-3.4988,-3.5189,-3.5309,-3.5583,-3.5746,-3.5918,-3.6158,-3.628,-3.6363,-3.6453,-3.6375,-3.6421,-3.6421,-3.6402,-3.6421,-3.6421,-3.6421,-3.6421,-3.4966,-3.5004,-3.5241,-3.5424,-3.562,-3.5796,-3.6023,-3.6216,-3.6418,-3.6503,-3.6522,-3.651,-3.6503,-3.6554,-3.6551,-3.6535,-3.6587,-3.6588,-3.6588,-3.5015,-3.5079,-3.5242,-3.5437,-3.5662,-3.5853,-3.6071,-3.628,-3.6511,-3.6598,-3.6573,-3.6566,-3.6549,-3.6535,-3.6614,-3.6607,-3.6581,0,0]},{"header":{"parameterUnit":"m.s-1","parameterCategory":1,"la1":30.2992,"la2":30.254,"lo1":-89.0895,"lo2":-89.0443,"dy":0.0025,"dx":0.0025,"nx":19,"ny":19,"refTime":"2026-05-12T09:00:00:Z","depth":0,"parameterNumber":3,"parameterNumberName":"V-component_of_WINDS"},"data":[0,0,0,0.0466,0.0466,0.0444,0.0444,0.0427,0.0427,0,0,0,0,0,0,0,0,0,0,0,0.0479,0.0479,0.0466,0.0466,0.0444,0.0444,0.0427,0.0427,0,0,0,0,0,0,0,0,0,0,0,0.0479,0.0479,0.048,0.0466,0.0444,0.0444,0.0427,0.0439,0,0,0,0,0,0,0,0,0,0,0.0458,0.0478,0.0479,0.048,0.0465,0.0444,0.0444,0.044,0.0439,0.0442,0,0.0447,0,0.0437,0.0427,0.0427,0,0,0,0.046,0.0479,0.0467,0.048,0.0465,0.0444,0.0452,0.0439,0.0438,0.044,0.0446,0.0445,0.0437,0.0427,0.0427,0.0465,0.0465,0,0,0.0461,0.0479,0.0468,0.0466,0.0471,0.0453,0.0452,0.0438,0.0446,0.0446,0.0445,0.0436,0.0427,0.0426,0.0464,0.0465,0,0,0,0.0468,0.048,0.0468,0.0467,0.0463,0.0452,0.0451,0.0446,0.0441,0.0445,0.0436,0.0426,0.0426,0.0464,0.0465,0.0503,0,0,0,0.0469,0.0484,0.0469,0.0479,0.0463,0.0454,0.046,0.0442,0.044,0.0436,0.0426,0.0426,0.0463,0.0464,0.0501,0.0517,0,0,0,0.0478,0.0485,0.0485,0.048,0.0472,0.0454,0.0448,0.0441,0.0435,0.0427,0.0426,0.0463,0.0464,0.0499,0.0514,0.0532,0,0,0,0.0493,0.0518,0.0485,0.0511,0.0472,0.0479,0.0448,0.0451,0.0449,0.0426,0.0463,0.0464,0.0498,0.0512,0.053,0.055,0.056,0,0,0.0535,0.0524,0.0537,0.0507,0.0524,0.0481,0.0503,0.0483,0.0466,0.0466,0.0467,0.0502,0.0514,0.0532,0.0613,0.0621,0,0,0,0.0556,0.0566,0.0567,0.0566,0.0553,0.0543,0.0519,0.0512,0.0511,0.047,0.0513,0.052,0.053,0.0538,0.0545,0.0552,0.047,0.0469,0.0469,0.0639,0.0617,0.0638,0.0613,0.0613,0.0589,0.0587,0.0573,0.055,0.0561,0.056,0.0612,0.0622,0.0627,0.0635,0.057,0.057,0.057,0.057,0.0697,0.0706,0.0677,0.0687,0.0664,0.0671,0.065,0.0634,0.0637,0.061,0.0618,0.0589,0.0637,0.0642,0.0573,0.0572,0.0572,0.0572,0.0572,0.0746,0.0747,0.074,0.0737,0.0738,0.0713,0.0719,0.0697,0.0677,0.0685,0.0681,0.0681,0.0676,0.0685,0.0685,0.0686,0.0686,0.0686,0.0686,0.0801,0.0791,0.0798,0.0788,0.0785,0.0779,0.0757,0.0754,0.0745,0.0729,0.0729,0.0704,0.0647,0.0632,0.0689,0.0688,0.0688,0.0688,0.0687,0.0864,0.0847,0.0858,0.0855,0.0842,0.0845,0.0819,0.0815,0.0809,0.0812,0.0788,0.0749,0.0736,0.073,0.0717,0.0793,0.0793,0.0793,0.0793,0.0905,0.0897,0.0904,0.0902,0.0897,0.0876,0.0889,0.0873,0.0854,0.0849,0.0836,0.0818,0.0813,0.0803,0.0795,0.0783,0.0874,0.0874,0.0874,0.0942,0.0933,0.0948,0.093,0.0919,0.091,0.0922,0.0921,0.0895,0.0877,0.0845,0.0841,0.0812,0.0804,0.0782,0.0771,0.0749,0,0]}]]